When you browse on this site, cookies collect data to enhance your experience and personalize the content and advertising you see.
Visit our Privacy Policy to learn more. By continuing to use the site, you agree to this use of cookies and data.
EN

Hourly Weather Rachnevo 2

Today, 16 July, Thursday

Time Temperature Precipitation Wind Pressure Humidity
00:00 +13°C° 0 mm 2 mps 746 mmHg 83%
01:00 +13°C° 0 mm 2 mps 746 mmHg 85%
02:00 +12°C° 0 mm 2 mps 746 mmHg 83%
03:00 +12°C° 0 mm 2 mps 746 mmHg 83%
04:00 +12°C° 0 mm 2 mps 746 mmHg 83%
05:00 +12°C° 0 mm 2 mps 746 mmHg 83%
06:00 +13°C° 0 mm 2 mps 746 mmHg 78%
07:00 +15°C° 0 mm 2 mps 746 mmHg 73%
08:00 +17°C° 0 mm 2 mps 746 mmHg 68%
09:00 +18°C° 0 mm 2 mps 746 mmHg 64%
10:00 +19°C° 0 mm 2 mps 746 mmHg 59%
11:00 +20°C° 0 mm 2 mps 746 mmHg 55%
12:00 +21°C° 0 mm 2 mps 746 mmHg 54%
13:00 +21°C° 0 mm 2 mps 746 mmHg 53%
14:00 +23°C° 0 mm 2 mps 746 mmHg 52%
15:00 +23°C° 0 mm 2 mps 746 mmHg 54%
16:00 +23°C° 0 mm 2 mps 746 mmHg 56%
17:00 +23°C° 0 mm 2 mps 746 mmHg 58%
18:00 +20°C° 0 mm 2 mps 746 mmHg 63%
19:00 +19°C° 0 mm 2 mps 746 mmHg 68%
20:00 +18°C° 0 mm 1 mps 746 mmHg 73%
21:00 +16°C° 0 mm 1 mps 746 mmHg 75%
22:00 +15°C° 0 mm 1 mps 746 mmHg 77%
23:00 +14°C° 0 mm 1 mps 747 mmHg 79%

Tomorrow, 17 July, Friday

Time Temperature Precipitation Wind Pressure Humidity
00:00 +14°C° 0 mm 1 mps 747 mmHg 81%
01:00 +13°C° 0 mm 1 mps 747 mmHg 83%
02:00 +13°C° 0 mm 1 mps 747 mmHg 85%
03:00 +13°C° 0 mm 1 mps 747 mmHg 86%
04:00 +13°C° 0 mm 1 mps 747 mmHg 86%
05:00 +12°C° 0 mm 1 mps 747 mmHg 86%
06:00 +14°C° 0 mm 1 mps 748 mmHg 81%
07:00 +16°C° 0 mm 1 mps 748 mmHg 76%
08:00 +18°C° 0 mm 2 mps 749 mmHg 70%
09:00 +19°C° 0 mm 2 mps 749 mmHg 65%
10:00 +20°C° 0 mm 2 mps 749 mmHg 59%
11:00 +23°C° 0 mm 2 mps 749 mmHg 53%
12:00 +23°C° 0 mm 2 mps 749 mmHg 50%
13:00 +24°C° 0 mm 2 mps 749 mmHg 48%
14:00 +25°C° 0 mm 2 mps 749 mmHg 45%
15:00 +25°C° 0 mm 2 mps 749 mmHg 47%
16:00 +25°C° 0 mm 2 mps 749 mmHg 49%
17:00 +24°C° 0 mm 2 mps 749 mmHg 51%
18:00 +23°C° 0 mm 2 mps 749 mmHg 58%
19:00 +21°C° 0 mm 1 mps 749 mmHg 64%
20:00 +19°C° 0 mm 1 mps 749 mmHg 70%
21:00 +18°C° 0 mm 1 mps 750 mmHg 72%
22:00 +16°C° 0 mm 1 mps 750 mmHg 74%
23:00 +15°C° 0 mm 1 mps 750 mmHg 76%

Day after tomorrow, 18 July, Saturday

Time Temperature Precipitation Wind Pressure Humidity
00:00 +14°C° 0 mm 1 mps 750 mmHg 76%
01:00 +14°C° 0 mm 1 mps 751 mmHg 77%
02:00 +13°C° 0 mm 1 mps 751 mmHg 77%
03:00 +13°C° 0 mm 1 mps 751 mmHg 77%
04:00 +13°C° 0 mm 1 mps 751 mmHg 76%
05:00 +13°C° 0 mm 1 mps 751 mmHg 76%
06:00 +15°C° 0 mm 1 mps 751 mmHg 70%
07:00 +18°C° 0 mm 1 mps 751 mmHg 64%
08:00 +20°C° 0 mm 1 mps 752 mmHg 58%
09:00 +22°C° 0 mm 1 mps 752 mmHg 54%
10:00 +23°C° 0 mm 1 mps 752 mmHg 50%
11:00 +25°C° 0 mm 1 mps 752 mmHg 46%
12:00 +25°C° 0 mm 1 mps 752 mmHg 44%
13:00 +26°C° 0 mm 1 mps 751 mmHg 42%
14:00 +26°C° 0 mm 1 mps 751 mmHg 40%
15:00 +26°C° 0 mm 1 mps 751 mmHg 41%
16:00 +26°C° 0 mm 1 mps 751 mmHg 42%
17:00 +26°C° 0 mm 1 mps 751 mmHg 43%
18:00 +24°C° 0 mm 1 mps 751 mmHg 51%
19:00 +22°C° 0 mm 1 mps 751 mmHg 58%
20:00 +20°C° 0 mm 1 mps 751 mmHg 65%
21:00 +19°C° 0 mm 1 mps 751 mmHg 68%
22:00 +18°C° 0 mm 1 mps 751 mmHg 71%
23:00 +16°C° 0 mm 1 mps 751 mmHg 74%

19 July, Sunday

Time Temperature Precipitation Wind Pressure Humidity
00:00 +15°C° 0 mm 1 mps 751 mmHg 76%
01:00 +15°C° 0 mm 1 mps 751 mmHg 78%
02:00 +13°C° 0 mm 0 mps 751 mmHg 81%
03:00 +13°C° 0 mm 0 mps 751 mmHg 81%
04:00 +13°C° 0 mm 0 mps 751 mmHg 82%
05:00 +14°C° 0 mm 1 mps 751 mmHg 82%
06:00 +18°C° 0 mm 1 mps 751 mmHg 77%
07:00 +20°C° 0 mm 1 mps 751 mmHg 72%
08:00 +22°C° 0 mm 1 mps 751 mmHg 66%
09:00 +23°C° 0.1 mm 1 mps 751 mmHg 61%
10:00 +25°C° 0.1 mm 1 mps 751 mmHg 56%
11:00 +24°C° 0.1 mm 0 mps 751 mmHg 51%
12:00 +24°C° 0 mm 0 mps 751 mmHg 50%
13:00 +24°C° 0 mm 0 mps 751 mmHg 49%
14:00 +24°C° 0 mm 0 mps 750 mmHg 48%
15:00 +26°C° 0 mm 1 mps 750 mmHg 50%
16:00 +26°C° 0 mm 1 mps 750 mmHg 52%
17:00 +26°C° 0 mm 1 mps 750 mmHg 54%
18:00 +24°C° 0.1 mm 1 mps 749 mmHg 61%
19:00 +22°C° 0.1 mm 1 mps 749 mmHg 69%
20:00 +20°C° 0.1 mm 1 mps 749 mmHg 76%
21:00 +19°C° 0.1 mm 1 mps 749 mmHg 77%
22:00 +18°C° 0.1 mm 1 mps 749 mmHg 79%
23:00 +15°C° 0.1 mm 0 mps 750 mmHg 81%

20 July, Monday

Time Temperature Precipitation Wind Pressure Humidity
00:00 +15°C° 0 mm 0 mps 749 mmHg 82%
01:00 +14°C° 0 mm 0 mps 749 mmHg 84%
02:00 +14°C° 0 mm 0 mps 749 mmHg 86%
03:00 +14°C° 0 mm 0 mps 749 mmHg 86%
04:00 +14°C° 0 mm 0 mps 749 mmHg 86%
05:00 +14°C° 0 mm 0 mps 749 mmHg 86%
06:00 +16°C° 0 mm 0 mps 749 mmHg 81%
07:00 +18°C° 0 mm 0 mps 749 mmHg 76%
08:00 +20°C° 0 mm 0 mps 749 mmHg 70%
09:00 +22°C° 0.3 mm 0 mps 749 mmHg 65%
10:00 +23°C° 0.3 mm 0 mps 748 mmHg 59%
11:00 +26°C° 0.3 mm 1 mps 748 mmHg 54%
12:00 +26°C° 0.1 mm 1 mps 748 mmHg 52%
13:00 +27°C° 0.1 mm 1 mps 747 mmHg 51%
14:00 +27°C° 0.1 mm 1 mps 747 mmHg 50%
15:00 +27°C° 0 mm 1 mps 747 mmHg 52%
16:00 +27°C° 0 mm 1 mps 747 mmHg 53%
17:00 +26°C° 0 mm 1 mps 747 mmHg 55%
18:00 +25°C° 0 mm 1 mps 746 mmHg 61%
19:00 +23°C° 0 mm 1 mps 746 mmHg 66%
20:00 +21°C° 0 mm 1 mps 746 mmHg 71%
21:00 +20°C° 0 mm 1 mps 746 mmHg 72%
22:00 +19°C° 0 mm 1 mps 746 mmHg 73%
23:00 +18°C° 0 mm 1 mps 745 mmHg 74%

21 July, Tuesday

Time Temperature Precipitation Wind Pressure Humidity
00:00 +18°C° 0 mm 1 mps 745 mmHg 77%
01:00 +16°C° 0 mm 1 mps 745 mmHg 80%
02:00 +16°C° 0 mm 1 mps 745 mmHg 82%
03:00 +16°C° 0 mm 2 mps 744 mmHg 84%
04:00 +16°C° 0 mm 2 mps 744 mmHg 86%
05:00 +16°C° 0 mm 2 mps 744 mmHg 87%
06:00 +17°C° 0 mm 2 mps 744 mmHg 84%
07:00 +19°C° 0 mm 2 mps 743 mmHg 80%
08:00 +21°C° 0 mm 2 mps 743 mmHg 76%
09:00 +20°C° 0.4 mm 2 mps 743 mmHg 82%
10:00 +20°C° 0.4 mm 3 mps 743 mmHg 87%
11:00 +19°C° 0.4 mm 3 mps 743 mmHg 92%
12:00 +20°C° 0.7 mm 3 mps 743 mmHg 90%
13:00 +21°C° 0.7 mm 4 mps 742 mmHg 89%
14:00 +21°C° 0.7 mm 4 mps 742 mmHg 87%
15:00 +21°C° 0.8 mm 5 mps 742 mmHg 83%
16:00 +20°C° 0.8 mm 5 mps 743 mmHg 80%
17:00 +20°C° 0.8 mm 6 mps 743 mmHg 77%
18:00 +19°C° 0 mm 6 mps 743 mmHg 76%
19:00 +17°C° 0 mm 5 mps 743 mmHg 74%
20:00 +15°C° 0 mm 5 mps 743 mmHg 73%
21:00 +14°C° 0 mm 5 mps 743 mmHg 73%
22:00 +13°C° 0 mm 5 mps 743 mmHg 73%
23:00 +12°C° 0 mm 5 mps 744 mmHg 73%
Show more